Regional Weather Roundup
Issued by NWS Newport/Morehead, NC

Current Version | Previous Version | Text Only | Print | Product List | Glossary On
Versions: 1 2 3 4 5 6 7 8 9 10 11 12 13 14 15 16 17 18 19 20 21 22 23 24 25 26 27 28 29 30 31 32 33 34 35 36 37 38 39 40 41 42 43 44 45 46 47 48 49 50
000 ASUS42 KMHX 170313 RWRMHX WEATHER ROUNDUP FOR EASTERN NORTH CAROLINA NATIONAL WEATHER SERVICE NEWPORT/MOREHEAD CITY NC 1100 PM EDT MON OCT 16 2017 NOTE: "FAIR" INDICATES FEW OR NO CLOUDS BELOW 12,000 FEET WITH NO SIGNIFICANT WEATHER AND/OR OBSTRUCTIONS TO VISIBILITY NCZ015>017-031-032-045>047-102-103-170400- NORTH COAST CITY SKY/WX TMP DP RH WIND PRES REMARKS EDENTON CLEAR 55 50 85 CALM 30.19R ELIZABETH CITY PTCLDY 58 51 78 N12 30.17R KITTY HAWK CLOUDY 61 44 53 N15G30 30.13R MANTEO CLOUDY N/A N/A N/A NE21G33 30.15R $$ NCZ045>047-081-094-103-104-170400- CENTRAL COAST CITY SKY/WX TMP DP RH WIND PRES REMARKS FRISCO CLOUDY 65 54 67 N14G28 30.10R $$ NCZ095-097-098-100-101-170400- SOUTHERN COAST CITY SKY/WX TMP DP RH WIND PRES REMARKS BEAUFORT CLOUDY 61 49 64 N16G29 30.13R CEDAR ISLAND NOT AVBL JACKSONVILLE CLOUDY 60 54 80 N14 30.15R PINEY ISLAND N/A N/A N/A N/A N21G29 30.13R WILMINGTON CLOUDY 61 51 70 N14G22 30.15R $$ NCZ011>013-027>030-043-044-078>080-089-090>093-098-170400- COASTAL PLAIN CITY SKY/WX TMP DP RH WIND PRES REMARKS AHOSKIE CLEAR 48 46 93 CALM 30.21R CLINTON CLEAR 56 55 97 N6 30.20R ELIZABETHTOWN NOT AVBL GOLDSBORO CLEAR 55 50 82 N7 30.19R GREENVILLE CLEAR 52 48 87 N5 30.21R HAVELOCK CLOUDY 61 54 77 N15G24 30.16R KENANSVILLE CLEAR 57 52 82 N10 30.19R KINSTON NOT AVBL NEW BERN CLOUDY 60 51 72 N14G22 30.17R RICHLANDS CLOUDY 59 52 77 N10 30.17R ROCKY MOUNT CLEAR 50 48 93 N5 30.22R WASHINGTON MOCLDY 55 49 78 N6 30.19R WHITEVILLE CLEAR 58 54 86 N3 30.17R $$ AMZ130-135-150-152-154-156-158-170-250-252-270-ANZ085-086-088-633-658-670-170400- MARINE OBSERVATIONS STATION/POSITION TIME TEMP WIND PRES WAVE SWELL AIR SEA DIR/SP/G HT/PER HT/PER (UTC) (F) (DEG/KT/KT) (MB) (FT/S) (FT/S) CHESAPEAKE LIGHT NOT AVBL 64 E VA BEACH 0250 63 69 360/ 27/ 31 1019.7 8/ 7 2/10 DUCK 0248 64 71 20/ 28/ 35 1020.1 2 E DUCK 0300 72 N/A 8/ 7 2/12 OREGON INLET 0236 62 73 350/ 21/ 29 1019.8 13E OREGON INLT 0248 73 N/A 8/ 7 2/11 HATTERAS CG 0248 66 74 10/ 28/ 33 1019.0 DIAMOND BUOY 0250 68 82 10/ 29/ 35 1017.6 8/ 7 2/11 CAPE LOOKOUT 0300 62 360/ 23/ 26 1019.5 BEAUFORT LAB 0248 62 75 10/ 19/ 23 1020.4 30 SE NEW RVR IN 0208 64 30/ 27/ 35 1019.1 30 SE NEW RVR IN NOT AVBL 27 SE WRIGHTSVLE 0208 64 78 50/ 25/ 37 1018.7 5 SE WRIGHTSVLE 0208 65 76 40/ 17/ 37 1020.3 225 S CAPE HAT 0250 78 80 260/ 2/ 4 1014.8 4/11 3/11 41 SE CHARLESTON 0250 70 81 30/ 27/ 35 1017.9 9/ 7 $$

USA.gov is the U.S. government's official web portal to all federal, state and local government web resources and services.